Regional Weather Roundup
Issued by NWS Cleveland, OH

Home | Current Version | Previous Version | Text Only | Print | Product List | Glossary Off
Versions: 1 2 3 4 5 6 7 8 9 10 11 12 13 14 15 16 17 18 19 20 21 22 23 24 25 26 27 28 29 30 31 32 33 34 35 36 37 38 39 40 41 42 43 44 45 46 47 48 49 50

000
ASUS41 KCLE 271000
RWRCLE
OHIO REGIONAL WEATHER ROUNDUP
NATIONAL WEATHER SERVICE WILMINGTON, OH
500 AM EST MON FEB 27 2017

NOTE: "FAIR" INDICATES FEW OR NO CLOUDS BELOW 12,000 FEET WITH NO
SIGNIFICANT WEATHER AND/OR OBSTRUCTIONS TO VISIBILITY.

OHZ001>008-015>018-024>027-034-035-043-044-271100-
   NORTHWEST OHIO

CITY           SKY/WX    TMP DP  RH WIND       PRES   REMARKS
DEFIANCE       FAIR      30  21  69 SW3       30.18R
FINDLAY        FAIR      33  22  63 S9        30.17R WCI  25
TOLEDO EXPRESS FAIR      33  23  66 S6        30.17R WCI  28
TOLEDO EXEC    FAIR      32  23  69 SW8       30.18R WCI  25
LIMA           MOCLDY    37  22  54 S8        30.18R
$$

OHZ009>014-019>023-028>033-038-089-271100-
   NORTHEAST OHIO

CITY           SKY/WX    TMP DP  RH WIND       PRES   REMARKS
CLE-HOPKINS    CLOUDY    39  18  42 S10       30.21R
CLE-LAKEFRONT  CLOUDY    40  18  41 S16       30.18R
CUY CO. ARPT   NOT AVBL
LORAIN-ELYRIA  MOCLDY    34  19  54 SW8       30.19R WCI  27
ASHTABULA      FAIR      32  18  56 S7        30.20R WCI  26
AKRON-CANTON   CLOUDY    34  17  50 S7        30.20R WCI  28
WOOSTER        NOT AVBL
MANSFIELD      MOCLDY    35  21  56 S10       30.19R WCI  27
YOUNGSTOWN     MOCLDY    33  16  49 S7        30.20R WCI  27
$$

OHZ042-051>053-060>062-070>072-077>081-271100-
  SOUTHWEST OHIO

CITY           SKY/WX    TMP DP  RH WIND       PRES   REMARKS
CINC-COVINGTON CLOUDY    43  22  43 S8        30.21R
CINC-LUNKEN    CLOUDY    42  27  55 S6        30.24R
HAMILTON       CLOUDY    39  30  70 CALM      30.23R
DAYTON         NOT AVBL
WRIGHT-PAT AFB CLOUDY    41  21  46 CALM      30.21R
DAYTON GENERAL CLOUDY    40  23  50 S7        30.21R
WILMINGTON     CLOUDY    38  25  59 S5        30.22R
$$

OHZ036-037-039>041-045>050-054>059-063>069-073>076-082>088-271100-
  CENTRAL AND SOUTHEAST OHIO

CITY           SKY/WX    TMP DP  RH WIND       PRES   REMARKS
COLUMBUS       CLOUDY    43  20  39 CALM      30.22R
OSU AIRPORT    CLOUDY    40  23  50 SW5       30.22R
BOLTON FIELD   NOT AVBL
RICKENBACK AFB NOT AVBL
NEWARK         CLOUDY    36  26  67 CALM      30.22R
MARION         CLOUDY    38  23  55 SW8       30.21R
LANCASTER      CLOUDY    40  22  48 SE3       30.23R
ZANESVILLE     CLOUDY    36  21  54 SE3       30.24R
NEW PHILLY     CLOUDY    33  23  66 SE6       30.25R WCI  28
$$



USA.gov is the U.S. government's official web portal to all federal, state and local government web resources and services.